Home > Weather > Santa Rosa > Past weeks

Flag for U.S.A. Weather for the Past 2 Weeks in Santa Rosa, California, U.S.A.

Now
47 °F

Fog.


Feels Like: 47 °F
Forecast: 47 / 69 °F
Wind: No wind

Location: Santa Rosa Sonoma County Airport

Current Time: Feb 12, 2016 at 2:45:36 AM

Latest Report: Feb 12, 2016 at 2:02 AM


Visibility: 1 mi

Pressure: 30.18 "Hg

Humidity: 97%

Dew point: 46 °F

Location of Santa RosaLocation

Historic Weather in Santa Rosa — Graph

°F

Santa Rosa Temperature Yesterday

Maximum temperature yesterday: 71 °F (at 3:53 PM)
Minimum temperature yesterday: 47 °F (at 5:53 AM)
Average temperature yesterday: 56 °F

High & Low Weather Summary for the Past Weeks

 TemperatureHumidityPressure
High74 °F (Feb 8, 2:53 PM)100% (Jan 28, 6:59 AM)30.43 "Hg (Jan 28, 6:59 AM)
Low36 °F (Feb 5, 5:53 AM)29% (Feb 1, 2:53 PM)29.74 "Hg (Jan 31, 1:53 PM)
Average51 °F79%30.19 "Hg
* Reported Jan 28 1:53 AM — Feb 12 1:53 AM, Santa Rosa, Weather by CustomWeather, © 2016

Note: Actual official high and low records may vary slightly from our data, if they occured in-between our weather recording intervals... More about our weather records

Advertising

Santa Rosa Weather History for the Previous 24 Hours

 ConditionsComfort  
Time TempWeatherWind HumidityBarometerVisibility
1:53 AM
Fri, Feb 12
48 °FFog.No wind93%30.16 "Hg4 mi
12:53 AM48 °FFog.No wind93%30.17 "Hg6 mi
11:53 PM
Thu, Feb 11
48 °FClear.No wind93%30.17 "Hg7 mi
10:53 PM51 °FClear.No wind89%30.16 "Hg8 mi
9:53 PM54 °FClear.3 mph83%30.15 "Hg8 mi
8:53 PM54 °FClear.3 mph83%30.14 "Hg9 mi
7:53 PM57 °FClear.6 mph81%30.13 "Hg9 mi
6:53 PM61 °FClear.3 mph72%30.11 "Hg10 mi
5:53 PM64 °FPassing clouds.5 mph61%30.10 "Hg10 mi
4:53 PM70 °FPartly sunny.5 mph46%30.10 "Hg10 mi
3:53 PM71 °FSunny.7 mph42%30.09 "Hg10 mi
2:53 PM70 °FSunny.6 mph53%30.08 "Hg9 mi
12:53 PM68 °FPartly sunny.3 mph53%30.10 "Hg9 mi
11:53 AM65 °FPartly sunny.3 mph59%30.12 "Hg10 mi
10:53 AM63 °FScattered clouds.No wind58%30.14 "Hg10 mi
9:53 AM58 °FScattered clouds.No wind67%30.15 "Hg10 mi
8:53 AM52 °FScattered clouds.5 mph86%30.14 "Hg10 mi
7:53 AM48 °FPartly sunny.No wind93%30.13 "Hg9 mi
6:53 AM48 °FPassing clouds.No wind93%30.11 "Hg10 mi
5:53 AM47 °FClear.3 mph93%30.11 "Hg10 mi
4:53 AM48 °FClear.6 mph93%30.10 "Hg10 mi
3:53 AM49 °FClear.No wind93%30.10 "Hg10 mi
2:53 AM49 °FClear.3 mph93%30.11 "Hg10 mi
Weather by CustomWeather, © 2016

See weather overviewHow to use our weather pages